Regional Weather Roundup
Issued by NWS

Home | Current Version | Previous Version | Text Only | Print | Product List | Glossary On
Versions: 1 2 3 4 5 6 7 8 9 10 11 12 13 14 15 16 17 18 19 20 21 22 23 24 25 26 27 28 29 30 31 32 33 34 35 36 37 38 39 40 41 42 43 44 45 46 47 48 49 50
000
ASUS43 KDTX 180810
RWRMI
MICHIGAN HOURLY REGIONAL WEATHER ROUNDUP
NATIONAL WEATHER SERVICE DETROIT/PONTIAC MI
400 AM EDT FRI APR 18 2014

NOTE: "FAIR" INDICATES FEW OR NO CLOUDS BELOW 12,000 FEET WITH NO
SIGNIFICANT WEATHER AND/OR OBSTRUCTION TO VISIBILITY.

MIZ047>049-052>055-059>063-066>070-074>076-081>083-180900-
SOUTHEAST LOWER MICHIGAN

CITY           SKY/WX    TMP DP  RH WIND       PRES   REMARKS
ADRIAN         CLOUDY    49  36  61 CALM      30.23S
ALMA           CLOUDY    45  38  79 CALM      30.24F
ANN ARBOR      CLOUDY    53  35  50 NW6       30.22F
BAD AXE        CLOUDY    44  34  68 NW5       30.24R
DETROIT CITY   CLOUDY    51  38  60 SW5       30.23S
DETROIT        CLOUDY    49  40  71 CALM      30.23S
FLINT          LGT RAIN  48  41  76 W7        30.25R
GROSSE ILE     MOCLDY    46  43  87 CALM      30.22R
HILLSDALE      CLOUDY    49  37  62 CALM      30.23R
HOWELL         RAIN      47  40  76 NW3       30.24R

CITY           SKY/WX    TMP DP  RH WIND       PRES   REMARKS
JACKSON        CLOUDY    48  39  71 NW8       30.23F
LAMBERTVILLE   MOCLDY    52  36  54 SW3       30.23S
LANSING        LGT RAIN  47  40  76 CALM      30.24F
LAPEER         NOT AVBL
MASON          LGT RAIN  47  41  80 CALM      30.25S
MONROE         MOCLDY    48  37  66 CALM      30.22R
MT. CLEMENS    CLOUDY    43  38  81 CALM      30.21S
PONTIAC        CLOUDY    50  38  63 NW10      30.22S
PORT HOPE        N/A     45  34  65 W6        30.22R
PORT HURON     CLOUDY    43  36  75 CALM      30.23S
TRI CITIES     CLOUDY    48  38  68 NW6       30.24F
YPSILANTI      CLOUDY    53  36  52 NW5       30.23R
$$
MIZ043>046-050>051-056>058-064>065-071>073-077>080-180900-
SOUTHWEST LOWER MICHIGAN

CITY           SKY/WX    TMP DP  RH WIND       PRES   REMARKS
BATTLE CREEK   LGT RAIN  46  43  89 CALM      30.25S FOG
BENTON HARBOR  CLOUDY    44  40  85 E3        30.24F
BIG RAPIDS     CLOUDY    38  38  99 CALM      30.24S
COLDWATER      CLOUDY    48  39  72 CALM      30.23S
HOLLAND        CLOUDY    45  38  76 CALM      30.25F
GRAND RAPIDS   CLOUDY    47  37  68 NW3       30.25S
KALAMAZOO      LGT RAIN  47  42  83 CALM      30.24F
MARSHALL       LGT RAIN  46  41  85 CALM      30.23F
MUSKEGON       CLOUDY    41  35  79 CALM      30.26S
$$
MIZ016>042-180900-
NORTHERN LOWER MICHIGAN

CITY           SKY/WX    TMP DP  RH WIND       PRES   REMARKS
BEAVER ISLAND  CLOUDY    33  32  95 W3        30.25S
BELLAIRE       PTCLDY    29  28  94 CALM      30.25F FOG
CADILLAC       CLOUDY    35  32  92 CALM      30.23S
CHARLEVOIX     CLOUDY    33  32  96 W5        30.28F
FRANKFORT      MOSUNNY   31  29  94 CALM      30.26S
GAYLORD        MOCLDY    32  29  88 W3        30.23S
GRAYLING       CLOUDY    33  31  94 CALM      30.25S
HARBOR SPRINGS PTCLDY    30  30  99 CALM      30.24S FOG
HOUGHTON LAKE  CLOUDY    36  31  82 CALM      30.24S
MANISTEE       MOCLDY    34  30  86 CALM      30.26F
OSCODA         CLOUDY    39  32  75 NW3       30.23S
PELLSTON       MOCLDY    29  26  89 N3        30.25S
TRAVERSE CITY  PTCLDY    33  30  88 CALM      30.25S
$$
MIZ007>008-015-180900-
EASTERN UPPER MICHIGAN

CITY           SKY/WX    TMP DP  RH WIND       PRES   REMARKS
KINROSS        CLOUDY    34  34 100 NW14      30.22S
MACKINAC ISLAN PTCLDY    31  30  98 W10       30.24R
NEWBERRY       CLOUDY    31  29  92 NW3       30.24S
S. S. MARIE    CLOUDY    33  28  81 W9        30.22S
$$
MIZ004>006-011>014-085-180900-
CENTRAL UPPER MICHIGAN

CITY           SKY/WX    TMP DP  RH WIND       PRES   REMARKS
MANISTIQUE     CLOUDY    34  31  90 NW7       30.25S
ESCANABA       CLOUDY    32  27  80 CALM      30.27S
MENOMINEE      CLOUDY    32  27  80 CALM      30.28S
SAWYER-GWINN   MOCLDY    31  26  81 NW6       30.25S
$$
MIZ001>003-009>011-084-180900-
WESTERN UPPER MICHIGAN

CITY           SKY/WX    TMP DP  RH WIND       PRES   REMARKS
IRON MOUNTAIN  CLOUDY    32  24  72 NW14      30.25S
HOUGHTON       CLOUDY    30  27  88 NW13      30.25S
COPPER HARBOR    N/A     32  30  92 N13       30.25S
IRONWOOD       PTCLDY    25  18  74 W6        30.26S
$$

ABBREVIATIONS USED IN REMARKS
   TC - TEMPERATURE IN CELSIUS
  WCI - WIND CHILL INDEX
   HX - HEAT INDEX
  VSB - VISIBILITY




USA.gov is the U.S. government's official web portal to all federal, state and local government web resources and services.